Location: Buckhorn Peak
(37.6641°N, 120.1241°W)
Time: 01:20:27
(UTC+00:00)

ARIANE 6 FM1 Upper Stage - Visible Passes

Search period start: 16 October 2024 00:00
Search period end: 26 October 2024 00:00
Orbit: 563 x 595 km, 62.0° (Epoch: 15 October)

Date Brightness Start Highest point End Pass type
(mag) Time Alt. Az. Time Alt. Az. Time Alt. Az.
17 Oct 5.1 02:42:52 10° NNE 02:42:59 10° NNE 02:42:59 10° NNE visible
17 Oct 5.8 04:19:16 10° NNW 04:19:16 10° NNW 04:19:16 10° NNW visible
18 Oct 4.8 02:45:35 10° N 02:47:21 14° NNE 02:47:21 14° NNE visible
18 Oct 5.9 04:23:31 10° NW 04:23:38 11° NW 04:23:38 11° NW visible
19 Oct 4.4 02:49:11 10° N 02:51:47 21° NNE 02:51:47 21° NNE visible
19 Oct 5.9 04:27:56 10° NW 04:28:05 11° NW 04:28:05 11° NW visible
20 Oct 3.8 02:53:03 10° NNW 02:56:20 31° NNE 02:56:20 31° NNE visible
20 Oct 6.0 04:32:35 10° WNW 04:32:38 10° WNW 04:32:38 10° WNW visible
21 Oct 3.0 02:57:03 10° NNW 03:01:00 50° NE 03:01:00 50° NE visible
22 Oct 2.6 03:01:11 10° NNW 03:05:34 85° ENE 03:05:51 77° ESE visible
23 Oct 3.3 03:05:27 10° NW 03:09:44 57° WSW 03:10:55 41° S visible
24 Oct 3.9 01:30:50 10° N 01:34:30 26° NE 01:38:08 10° ESE visible
24 Oct 4.3 03:09:54 10° NW 03:13:49 33° WSW 03:16:19 19° S visible
25 Oct 3.3 01:34:42 10° NNW 01:38:48 39° NE 01:42:54 10° ESE visible
25 Oct 5.2 03:14:38 10° WNW 03:17:51 20° WSW 03:21:05 10° SSW visible
